| time (UTC) | temp F | wind direction | speed knots | gust knots | rain 1hr in | rain 24hr in | rain mn in | humidity % | barometer mb |
| 20260905214017 | 75 | 338 | 5.2 | 10.4 | 0.00 | 0.00 | 0.00 | 63 | 1011.1 |
| 20260905213017 | 76 | 293 | 6.1 | 10.4 | 0.00 | 0.00 | 0.00 | 63 | 1010.9 |
| 20260905212037 | 76 | 338 | 5.2 | 10.4 | 0.00 | 0.00 | 0.00 | 63 | 1010.9 |
| 20260905211019 | 76 | 338 | 6.1 | 11.3 | 0.00 | 0.00 | 0.00 | 62 | 1010.9 |
| 20260905210018 | 76 | 338 | 5.2 | 9.6 | 0.00 | 0.00 | 0.00 | 62 | 1010.9 |
| 20260905205018 | 75 | 338 | 7.0 | 11.3 | 0.00 | 0.00 | 0.00 | 62 | 1011.0 |
| 20260905204019 | 76 | 338 | 7.0 | 13.0 | 0.00 | 0.00 | 0.00 | 62 | 1010.8 |
| 20260905203019 | 77 | 338 | 5.2 | 10.4 | 0.00 | 0.00 | 0.00 | 62 | 1010.9 |
| 20260905202039 | 77 | 23 | 4.3 | 9.6 | 0.00 | 0.00 | 0.00 | 62 | 1010.9 |
| 20260905201018 | 76 | 338 | 7.0 | 12.2 | 0.00 | 0.00 | 0.00 | 61 | 1010.8 |
| 20260905200018 | 76 | 315 | 7.0 | 12.2 | 0.00 | 0.00 | 0.00 | 62 | 1010.8 |
| 20260905195018 | 76 | 338 | 9.6 | 17.4 | 0.00 | 0.00 | 0.00 | 60 | 1010.9 |
| 20260905194019 | 77 | 338 | 7.0 | 14.8 | 0.00 | 0.00 | 0.00 | 62 | 1010.8 |
| 20260905193217 | 76 | 315 | 6.1 | 10.4 | 0.00 | 0.00 | 0.00 | 61 | 1010.7 |
| 20260905192540 | 76 | 338 | 5.2 | 11.3 | 0.00 | 0.00 | 0.00 | 61 | 1010.6 |
| 20260905191519 | 75 | 293 | 5.2 | 10.4 | 0.00 | 0.00 | 0.00 | 62 | 1010.7 |
| 20260905190540 | 75 | 338 | 5.2 | 10.4 | 0.00 | 0.00 | 0.00 | 63 | 1010.7 |
| 20260905190018 | 76 | 338 | 7.0 | 13.0 | 0.00 | 0.00 | 0.00 | 61 | 1010.7 |
| 20260905185518 | 76 | 338 | 6.1 | 13.0 | 0.00 | 0.00 | 0.00 | 62 | 1010.6 |
| 20260905184519 | 76 | 338 | 5.2 | 9.6 | 0.00 | 0.00 | 0.00 | 61 | 1010.6 |
| 20260905183518 | 77 | 338 | 7.0 | 13.9 | 0.00 | 0.00 | 0.00 | 61 | 1010.8 |
| 20260905182518 | 77 | 315 | 3.5 | 7.8 | 0.00 | 0.00 | 0.00 | 57 | 1010.7 |
| 20260905181518 | 76 | 293 | 3.5 | 7.8 | 0.00 | 0.00 | 0.00 | 59 | 1010.8 |
| 20260905180518 | 77 | 293 | 2.6 | 5.2 | 0.00 | 0.00 | 0.00 | 57 | 1010.7 |
| 20260905175518 | 77 | 293 | 5.2 | 9.6 | 0.00 | 0.00 | 0.00 | 58 | 1010.7 |
| 20260905175447 | 77 | 293 | 3.5 | 7.8 | 0.00 | 0.00 | 0.00 | 57 | 1010.8 |
| 20260905173520 | 76 | 23 | 4.3 | 8.7 | 0.00 | 0.00 | 0.00 | 59 | 1010.7 |
| 20260905172521 | 76 | 338 | 3.5 | 7.8 | 0.00 | 0.00 | 0.00 | 60 | 1010.7 |
| 20260905171520 | 75 | 338 | 5.2 | 8.7 | 0.00 | 0.00 | 0.00 | 61 | 1010.9 |
| 20260905170521 | 76 | 23 | 1.7 | 4.3 | 0.00 | 0.00 | 0.00 | 60 | 1011.0 |
| 20260905165521 | 76 | 338 | 6.1 | 11.3 | 0.00 | 0.00 | 0.00 | 60 | 1011.1 |
| 20260905164520 | 74 | 293 | 2.6 | 7.8 | 0.00 | 0.00 | 0.00 | 64 | 1011.0 |
| 20260905163521 | 74 | 293 | 2.6 | 6.1 | 0.00 | 0.00 | 0.00 | 64 | 1011.1 |
| 20260905162521 | 74 | 293 | 2.6 | 5.2 | 0.00 | 0.00 | 0.00 | 64 | 1011.2 |
| 20260905161521 | 74 | 338 | 5.2 | 11.3 | 0.00 | 0.00 | 0.00 | 65 | 1011.3 |
| 20260905160520 | 74 | 23 | 5.2 | 9.6 | 0.00 | 0.00 | 0.00 | 63 | 1011.2 |
| 20260905155520 | 73 | 23 | 3.5 | 8.7 | 0.00 | 0.00 | 0.00 | 65 | 1011.2 |
| 20260905154521 | 73 | 338 | 3.5 | 7.8 | 0.00 | 0.00 | 0.00 | 65 | 1011.2 |
| 20260905153521 | 72 | 23 | 5.2 | 10.4 | 0.00 | 0.00 | 0.00 | 66 | 1011.3 |
| 20260905152520 | 72 | 338 | 5.2 | 10.4 | 0.00 | 0.00 | 0.00 | 67 | 1011.3 |
| 20260905151520 | 73 | 338 | 2.6 | 6.1 | 0.00 | 0.00 | 0.00 | 68 | 1011.5 |
| 20260905150540 | 71 | 23 | 2.6 | 5.2 | 0.00 | 0.00 | 0.00 | 70 | 1011.5 |
| 20260905145520 | 70 | 23 | 4.3 | 8.7 | 0.00 | 0.00 | 0.00 | 72 | 1011.6 |
| 20260905144540 | 70 | 338 | 2.6 | 5.2 | 0.00 | 0.00 | 0.00 | 74 | 1011.6 |
| 20260905143520 | 70 | 338 | 2.6 | 5.2 | 0.00 | 0.00 | 0.00 | 73 | 1011.4 |
| 20260905142600 | 71 | 315 | 1.7 | 4.3 | 0.00 | 0.00 | 0.00 | 73 | 1011.4 |
| 20260905141540 | 71 | 23 | 2.6 | 5.2 | 0.00 | 0.00 | 0.00 | 74 | 1011.6 |
| 20260905140525 | 70 | 23 | 2.6 | 7.0 | 0.00 | 0.00 | 0.00 | 75 | 1011.5 |
| 20260905135520 | 69 | 23 | 0.9 | 2.6 | 0.00 | 0.00 | 0.00 | 78 | 1011.4 |
| 20260905134520 | 69 | 338 | 1.7 | 4.3 | 0.00 | 0.00 | 0.00 | 77 | 1011.6 |
| 20260905133520 | 69 | 23 | 2.6 | 5.2 | 0.00 | 0.00 | 0.00 | 78 | 1011.5 |
| 20260905132520 | 69 | 23 | 2.6 | 7.0 | 0.00 | 0.00 | 0.00 | 78 | 1011.6 |
| 20260905131520 | 69 | 45 | 0.9 | 2.6 | 0.00 | 0.00 | 0.00 | 78 | 1011.6 |
| 20260905130520 | 69 | 0.0 | 1.7 | 0.00 | 0.00 | 0.00 | 78 | 1011.6 | |
| 20260905125519 | 67 | 0.0 | 0.9 | 0.00 | 0.00 | 0.00 | 82 | 1011.7 | |
| 20260905124521 | 66 | 158 | 1.7 | 2.6 | 0.00 | 0.00 | 0.00 | 84 | 1011.9 |
| 20260905123519 | 65 | 158 | 1.7 | 3.5 | 0.00 | 0.00 | 0.00 | 85 | 1011.8 |
| 20260905122520 | 63 | 203 | 0.9 | 3.5 | 0.00 | 0.00 | 0.00 | 87 | 1011.8 |
| 20260905121520 | 63 | 0.0 | 0.9 | 0.00 | 0.00 | 0.00 | 88 | 1011.7 | |
| 20260905120519 | 62 | 158 | 0.9 | 1.7 | 0.00 | 0.00 | 0.00 | 88 | 1011.7 |
| 20260905115520 | 62 | 203 | 0.9 | 2.6 | 0.00 | 0.00 | 0.00 | 89 | 1011.5 |
| 20260905114523 | 62 | 180 | 0.9 | 2.6 | 0.00 | 0.00 | 0.00 | 89 | 1011.4 |
| 20260905113521 | 61 | 158 | 0.9 | 1.7 | 0.00 | 0.00 | 0.00 | 90 | 1011.3 |
| 20260905112521 | 61 | 158 | 1.7 | 3.5 | 0.00 | 0.00 | 0.00 | 90 | 1011.3 |
| 20260905111521 | 60 | 158 | 0.9 | 2.6 | 0.00 | 0.00 | 0.00 | 90 | 1011.2 |
| 20260905110521 | 60 | 180 | 1.7 | 3.5 | 0.00 | 0.00 | 0.00 | 90 | 1011.1 |
| 20260905105527 | 60 | 180 | 0.9 | 3.5 | 0.00 | 0.00 | 0.00 | 90 | 1011.0 |
| 20260905104521 | 60 | 180 | 1.7 | 2.6 | 0.00 | 0.00 | 0.00 | 90 | 1010.7 |
| 20260905103521 | 60 | 158 | 1.7 | 3.5 | 0.00 | 0.00 | 0.00 | 90 | 1010.7 |
| 20260905102521 | 60 | 158 | 0.9 | 1.7 | 0.00 | 0.00 | 0.00 | 90 | 1010.5 |
| 20260905101528 | 60 | 158 | 2.6 | 3.5 | 0.00 | 0.00 | 0.00 | 90 | 1010.5 |
| 20260905100521 | 60 | 180 | 1.7 | 3.5 | 0.00 | 0.00 | 0.00 | 89 | 1010.5 |
| 20260905095521 | 61 | 180 | 1.7 | 3.5 | 0.00 | 0.00 | 0.00 | 89 | 1010.5 |
| 20260905094541 | 61 | 158 | 0.9 | 1.7 | 0.00 | 0.00 | 0.00 | 89 | 1010.4 |
| 20260905093521 | 61 | 203 | 0.9 | 2.6 | 0.00 | 0.00 | 0.00 | 88 | 1010.4 |
| 20260905092542 | 61 | 180 | 0.9 | 0.9 | 0.00 | 0.00 | 0.00 | 88 | 1010.4 |
| 20260905091521 | 62 | 180 | 0.9 | 2.6 | 0.00 | 0.00 | 0.00 | 87 | 1010.4 |
| 20260905090521 | 62 | 0.0 | 0.0 | 0.00 | 0.00 | 0.00 | 87 | 1010.5 | |
| 20260905085521 | 62 | 0.0 | 0.0 | 0.00 | 0.00 | 0.00 | 85 | 1010.5 | |
| 20260905084541 | 63 | 0.0 | 0.0 | 0.00 | 0.00 | 0.00 | 83 | 1010.5 | |
| 20260905083521 | 64 | 0.0 | 0.0 | 0.00 | 0.00 | 0.00 | 82 | 1010.4 | |
| 20260905082541 | 65 | 0.0 | 1.7 | 0.00 | 0.00 | 0.00 | 82 | 1010.5 | |
| 20260905081521 | 65 | 0.0 | 0.9 | 0.00 | 0.00 | 0.00 | 82 | 1010.6 | |
| 20260905080521 | 65 | 0.0 | 0.0 | 0.00 | 0.00 | 0.00 | 82 | 1010.6 | |
| 20260905075521 | 65 | 0.0 | 1.7 | 0.00 | 0.00 | 0.00 | 82 | 1010.6 | |
| 20260905074521 | 66 | 0.0 | 0.9 | 0.00 | 0.00 | 0.00 | 81 | 1010.5 | |
| 20260905073521 | 66 | 293 | 0.9 | 1.7 | 0.00 | 0.00 | 0.00 | 81 | 1010.4 |
| 20260905072521 | 66 | 0.0 | 0.9 | 0.00 | 0.00 | 0.00 | 81 | 1010.5 | |
| 20260905071521 | 66 | 0.0 | 0.9 | 0.00 | 0.00 | 0.00 | 80 | 1010.6 | |
| 20260905070541 | 67 | 0.0 | 1.7 | 0.00 | 0.00 | 0.00 | 80 | 1010.8 | |
| 20260905065521 | 67 | 0.0 | 0.9 | 0.00 | 0.00 | 0.00 | 80 | 1010.7 | |
| 20260905064520 | 68 | 0.0 | 1.7 | 0.00 | 0.00 | 0.00 | 79 | 1010.7 | |
| 20260905063520 | 68 | 0.0 | 0.9 | 0.00 | 0.00 | 0.00 | 79 | 1010.7 | |
| 20260905062522 | 68 | 0.0 | 1.7 | 0.00 | 0.00 | 0.00 | 79 | 1010.7 | |
| 20260905061520 | 69 | 293 | 0.9 | 1.7 | 0.00 | 0.00 | 0.00 | 78 | 1010.7 |
| 20260905060701 | 69 | 0.0 | 1.7 | 0.00 | 0.00 | 0.00 | 79 | 1010.8 | |
| 20260905055520 | 69 | 23 | 0.9 | 1.7 | 0.00 | 0.00 | 0.00 | 79 | 1010.8 |
| 20260905054520 | 69 | 0.0 | 1.7 | 0.00 | 0.00 | 0.00 | 79 | 1010.8 | |
| 20260905053522 | 69 | 0.0 | 1.7 | 0.00 | 0.00 | 0.00 | 78 | 1010.9 | |
| 20260905052521 | 69 | 0.0 | 1.7 | 0.00 | 0.00 | 0.00 | 79 | 1011.0 | |
| 20260905051520 | 69 | 315 | 0.9 | 2.6 | 0.00 | 0.00 | 0.00 | 79 | 1011.0 |
| 20260905050520 | 69 | 0.0 | 1.7 | 0.00 | 0.00 | 0.00 | 79 | 1011.0 | |
| 20260905045521 | 70 | 248 | 0.9 | 1.7 | 0.00 | 0.00 | 0.00 | 79 | 1011.1 |
| 20260905044540 | 70 | 293 | 0.9 | 3.5 | 0.00 | 0.00 | 0.00 | 79 | 1011.1 |
| 20260905043600 | 70 | 248 | 0.9 | 1.7 | 0.00 | 0.00 | 0.00 | 79 | 1011.0 |
| 20260905042520 | 69 | 338 | 0.9 | 2.6 | 0.00 | 0.00 | 0.00 | 80 | 1011.0 |
| 20260905041520 | 69 | 0 | 0.9 | 2.6 | 0.00 | 0.00 | 0.00 | 80 | 1011.0 |
| 20260905040522 | 70 | 0 | 0.9 | 2.6 | 0.00 | 0.00 | 0.00 | 79 | 1010.9 |
| 20260905035540 | 69 | 0.0 | 1.7 | 0.00 | 0.00 | 0.00 | 80 | 1010.9 | |
| 20260905034520 | 69 | 0.0 | 0.9 | 0.00 | 0.00 | 0.00 | 80 | 1011.0 | |
| 20260905033520 | 68 | 248 | 0.9 | 1.7 | 0.00 | 0.00 | 0.00 | 81 | 1011.0 |
| 20260905032520 | 68 | 0.0 | 0.9 | 0.00 | 0.00 | 0.00 | 80 | 1011.0 | |
| 20260905031520 | 68 | 225 | 0.9 | 3.5 | 0.00 | 0.00 | 0.00 | 80 | 1010.8 |
| 20260905030521 | 68 | 158 | 0.9 | 1.7 | 0.00 | 0.00 | 0.00 | 79 | 1010.6 |
| 20260905025520 | 68 | 180 | 0.9 | 2.6 | 0.00 | 0.00 | 0.00 | 78 | 1010.8 |
| 20260905024520 | 68 | 0.0 | 1.7 | 0.00 | 0.00 | 0.00 | 78 | 1010.9 | |
| 20260905023520 | 68 | 180 | 0.9 | 1.7 | 0.00 | 0.00 | 0.00 | 77 | 1011.0 |
| 20260905022520 | 68 | 158 | 0.9 | 1.7 | 0.00 | 0.00 | 0.00 | 76 | 1011.0 |
| 20260905021520 | 69 | 0.0 | 0.9 | 0.00 | 0.00 | 0.00 | 75 | 1011.0 | |
| 20260905020519 | 69 | 248 | 0.9 | 2.6 | 0.00 | 0.00 | 0.00 | 74 | 1011.1 |
| 20260905015519 | 69 | 225 | 0.9 | 1.7 | 0.00 | 0.00 | 0.00 | 73 | 1011.2 |
| 20260905014519 | 70 | 0.0 | 0.0 | 0.00 | 0.00 | 0.00 | 72 | 1011.2 | |
| 20260905013521 | 70 | 0.0 | 0.9 | 0.00 | 0.00 | 0.00 | 72 | 1011.2 | |
| 20260905012519 | 70 | 0.0 | 0.9 | 0.00 | 0.00 | 0.00 | 71 | 1011.3 | |
| 20260905011522 | 71 | 248 | 0.9 | 1.7 | 0.00 | 0.00 | 0.00 | 69 | 1011.2 |
| 20260905010521 | 71 | 248 | 0.9 | 0.9 | 0.00 | 0.00 | 0.00 | 68 | 1011.2 |
| 20260905005521 | 72 | 225 | 0.9 | 1.7 | 0.00 | 0.00 | 0.00 | 67 | 1011.2 |
| 20260905004521 | 73 | 248 | 0.9 | 1.7 | 0.00 | 0.00 | 0.00 | 65 | 1011.2 |
| 20260905003521 | 74 | 248 | 0.9 | 2.6 | 0.00 | 0.00 | 0.00 | 64 | 1011.0 |
| 20260905002601 | 74 | 315 | 0.9 | 2.6 | 0.00 | 0.00 | 0.00 | 63 | 1011.0 |
| 20260905001521 | 74 | 315 | 0.9 | 2.6 | 0.00 | 0.00 | 0.00 | 63 | 1010.9 |
| 20260905000521 | 74 | 293 | 0.9 | 3.5 | 0.00 | 0.00 | 0.00 | 64 | 1010.8 |
| 20260904235541 | 74 | 338 | 1.7 | 3.5 | 0.00 | 0.00 | 0.00 | 63 | 1010.8 |
| 20260904234521 | 74 | 0 | 0.9 | 2.6 | 0.00 | 0.00 | 0.00 | 63 | 1010.8 |
| 20260904233601 | 74 | 338 | 3.5 | 5.2 | 0.00 | 0.00 | 0.00 | 63 | 1010.8 |
| 20260904232521 | 74 | 338 | 2.6 | 5.2 | 0.00 | 0.00 | 0.00 | 61 | 1010.7 |
| 20260904231524 | 74 | 338 | 3.5 | 6.1 | 0.00 | 0.00 | 0.00 | 61 | 1010.7 |
| 20260904230521 | 75 | 23 | 3.5 | 6.1 | 0.00 | 0.00 | 0.00 | 60 | 1010.7 |
| 20260904225522 | 75 | 23 | 3.5 | 5.2 | 0.00 | 0.00 | 0.00 | 59 | 1010.5 |
| 20260904224521 | 76 | 338 | 3.5 | 6.1 | 0.00 | 0.00 | 0.00 | 56 | 1010.6 |
| 20260904223521 | 76 | 338 | 5.2 | 9.6 | 0.00 | 0.00 | 0.00 | 57 | 1010.5 |
| 20260904222521 | 77 | 23 | 5.2 | 9.6 | 0.00 | 0.00 | 0.00 | 56 | 1010.3 |
| 20260904221541 | 77 | 338 | 5.2 | 11.3 | 0.00 | 0.00 | 0.00 | 55 | 1010.3 |
| 20260904220521 | 77 | 338 | 7.0 | 10.4 | 0.00 | 0.00 | 0.00 | 54 | 1010.4 |
| 20260904215521 | 77 | 338 | 6.1 | 12.2 | 0.00 | 0.00 | 0.00 | 55 | 1010.4 |